TimeEST,TemperatureF,Dew PointF,Humidity,Sea Level PressureIn,VisibilityMPH,Wind Direction,Wind SpeedMPH,Gust SpeedMPH,PrecipitationIn,Events,Conditions,WindDirDegrees,DateUTC
12:53 AM,39.0,30.0,70,29.94,10.0,South,9.2,-,N/A,,Overcast,190,2012-12-07 05:53:00
1:53 AM,39.0,30.9,73,29.95,10.0,SSW,5.8,-,0.00,,Overcast,200,2012-12-07 06:53:00
2:53 AM,39.9,30.9,70,29.95,10.0,SSW,3.5,-,N/A,,Overcast,210,2012-12-07 07:53:00
3:53 AM,39.9,30.9,70,29.94,10.0,SW,5.8,-,N/A,,Overcast,230,2012-12-07 08:53:00
4:53 AM,39.0,32.0,76,29.94,9.0,SW,5.8,-,N/A,,Overcast,230,2012-12-07 09:53:00
5:53 AM,39.9,32.0,73,29.94,9.0,WSW,5.8,-,N/A,,Overcast,240,2012-12-07 10:53:00
6:53 AM,39.0,34.0,82,29.96,5.0,SW,3.5,-,0.00,Rain,Light Rain,230,2012-12-07 11:53:00
7:53 AM,39.0,36.0,89,29.96,3.0,Calm,Calm,-,0.03,Rain,Light Rain,0,2012-12-07 12:53:00
8:20 AM,39.2,35.6,87,29.94,2.5,SW,3.5,-,0.00,Rain,Light Rain,220,2012-12-07 13:20:00
8:29 AM,39.2,37.4,93,29.94,2.0,Calm,Calm,-,0.01,Rain,Light Rain,0,2012-12-07 13:29:00
8:49 AM,39.2,37.4,93,29.94,1.8,SW,3.5,-,0.01,Rain,Light Rain,230,2012-12-07 13:49:00
8:53 AM,39.0,37.0,93,29.96,1.8,SW,3.5,-,0.02,Rain,Light Rain,230,2012-12-07 13:53:00
9:02 AM,39.2,37.4,93,29.94,2.5,Calm,Calm,-,0.01,Rain,Light Rain,0,2012-12-07 14:02:00
9:11 AM,39.2,37.4,93,29.94,1.8,Calm,Calm,-,0.02,Rain,Light Rain,0,2012-12-07 14:11:00
9:26 AM,39.2,37.4,93,29.94,1.5,Calm,Calm,-,0.02,Rain,Light Rain,0,2012-12-07 14:26:00
9:49 AM,39.2,37.4,93,29.95,1.5,SW,3.5,-,0.03,Rain,Light Rain,230,2012-12-07 14:49:00
9:53 AM,39.9,37.9,93,29.97,1.5,Calm,Calm,-,0.03,Rain,Light Rain,0,2012-12-07 14:53:00
10:14 AM,41.0,37.4,87,29.94,1.8,Calm,Calm,-,0.01,Rain,Light Rain,0,2012-12-07 15:14:00
10:37 AM,41.0,39.2,93,29.95,1.8,Calm,Calm,-,0.01,Rain,Light Rain,0,2012-12-07 15:37:00
10:53 AM,41.0,39.0,93,29.98,1.8,Calm,Calm,-,0.02,Rain,Light Rain,0,2012-12-07 15:53:00
11:53 AM,42.1,39.0,89,29.96,1.8,Calm,Calm,-,0.01,,Overcast,0,2012-12-07 16:53:00
12:53 PM,42.1,39.9,92,29.95,1.8,SSW,3.5,-,N/A,,Overcast,200,2012-12-07 17:53:00
1:53 PM,42.1,39.9,92,29.93,1.5,SSW,3.5,-,N/A,,Overcast,200,2012-12-07 18:53:00
2:53 PM,43.0,39.9,89,29.92,1.5,Calm,Calm,-,N/A,,Overcast,0,2012-12-07 19:53:00
3:00 PM,42.8,39.2,87,29.91,2.5,Calm,Calm,-,N/A,,Overcast,0,2012-12-07 20:00:00
3:26 PM,44.6,39.2,81,29.91,3.0,Calm,Calm,-,N/A,,Overcast,0,2012-12-07 20:26:00
3:53 PM,44.1,39.0,82,29.94,3.0,Calm,Calm,-,N/A,,Haze,0,2012-12-07 20:53:00
4:08 PM,44.6,39.2,81,29.93,3.0,Calm,Calm,-,N/A,,Haze,0,2012-12-07 21:08:00
4:53 PM,43.0,39.0,86,29.95,3.0,East,3.5,-,N/A,,Overcast,90,2012-12-07 21:53:00
5:05 PM,42.8,39.2,87,29.93,2.5,ESE,4.6,-,N/A,,Overcast,120,2012-12-07 22:05:00
5:12 PM,42.8,39.2,87,29.93,4.0,ESE,3.5,-,N/A,,Overcast,120,2012-12-07 22:12:00
5:53 PM,42.1,39.0,89,29.95,4.0,Calm,Calm,-,N/A,,Overcast,0,2012-12-07 22:53:00
6:53 PM,42.1,39.0,89,29.95,4.0,East,3.5,-,N/A,,Overcast,100,2012-12-07 23:53:00
7:27 PM,41.0,37.4,87,29.93,3.0,East,5.8,-,N/A,,Mostly Cloudy,80,2012-12-08 00:27:00
7:53 PM,41.0,37.9,89,29.94,3.0,East,3.5,-,N/A,,Overcast,80,2012-12-08 00:53:00
8:00 PM,41.0,37.4,87,29.92,3.0,East,4.6,-,N/A,,Overcast,80,2012-12-08 01:00:00
8:53 PM,42.1,39.0,89,29.95,3.0,East,4.6,-,N/A,,Overcast,100,2012-12-08 01:53:00
8:59 PM,42.8,39.2,87,29.93,3.0,East,4.6,-,N/A,,Overcast,90,2012-12-08 01:59:00
9:14 PM,42.8,39.2,87,29.92,3.0,East,6.9,-,N/A,,Overcast,90,2012-12-08 02:14:00
9:25 PM,42.8,39.2,87,29.92,3.0,East,6.9,-,N/A,,Overcast,80,2012-12-08 02:25:00
9:38 PM,42.8,37.4,81,29.91,3.0,East,9.2,-,N/A,,Overcast,80,2012-12-08 02:38:00
9:53 PM,41.0,37.9,89,29.93,3.0,East,9.2,-,N/A,,Overcast,80,2012-12-08 02:53:00
10:53 PM,41.0,37.9,89,29.91,3.0,East,8.1,-,N/A,,Overcast,80,2012-12-08 03:53:00
11:08 PM,41.0,37.4,87,29.89,3.0,East,6.9,-,N/A,,Overcast,80,2012-12-08 04:08:00
11:53 PM,41.0,37.9,89,29.92,4.0,East,6.9,-,N/A,,Overcast,90,2012-12-08 04:53:00